Regional Weather Roundup
Issued by NWS Sterling, VA

Home | Current Version | Previous Version | Graphics & Text | Print | Product List | Glossary On
Versions: 1 2 3 4 5 6 7 8 9 10 11 12 13 14 15 16 17 18 19 20 21 22 23 24 25 26 27 28 29 30 31 32 33 34 35 36 37 38 39 40 41 42 43 44 45 46 47 48 49 50
000
ASUS41 KLWX 010210
RWRLWX

REGIONAL WEATHER ROUNDUP
NATIONAL WEATHER SERVICE BALTIMORE MD/WASHINGTON DC
1000 PM EDT TUE JUN 30 2015

Note: "FAIR" indicates few or no clouds below 12,000 feet
with no significant weather and/or obstructions to visibility.
 TC=TEMPERATURE CELSIUS

 * =Non NWS site. Station does not report precipitation (e.g. rain,
    snow, etc.), thunder, or fog.

DCZ001-MDZ009-015-VAZ040>042-051-053>054-010300-
WASHINGTON METRO

CITY           SKY/WX    TMP DP  RH WIND       PRES   REMARKS
WASHINGTON NAT MOCLDY    80  68  66 S8        29.82R
DULLES         CLOUDY    77  67  71 S5        29.82R
ANDREWS AFB    PTCLDY    75  72  90 S7        29.82S
FT BELVOIR     PTCLDY    73  69  89 SE1       29.82R
QUANTICO       MOCLDY    81  69  67 SW3       29.82S
COLLEGE PARK*  CLEAR     77  68  73 CALM      29.82R
MANASSAS*      CLEAR     75  70  83 CALM        N/A
GAITHERSBURG*  MOCLDY    77  64  65 S5        29.87R

$$

MDZ006>007-011-014-010300-
BALTIMORE METRO

CITY           SKY/WX    TMP DP  RH WIND       PRES   REMARKS
BWI AIRPORT    MOCLDY    76  69  79 S5        29.82R
MD SCIENCE CTR   N/A     79  69  71 MISG      29.82R
MARTIN STATE   CLEAR     75  73  94 E6        29.83R
ANNAPOLIS      PTCLDY    77  71  82 S7        29.82R
FORT MEADE*    PTCLDY    72  68  88 CALM      29.84S

$$

MDZ012-015-019>023-010300-
MARYLAND EASTERN SHORE

CITY           SKY/WX    TMP DP  RH WIND       PRES   REMARKS
OCEAN CITY     CLEAR     77  73  87 S8        29.87R
SALISBURY      PTCLDY    76  71  85 S8        29.86R
BAY BRIDGE AP*   N/A     77  70  78 S9        29.82F
CAMBRIDGE*     PTCLDY    73  70  88 CALM      29.84S
EASTON*        PTCLDY    77  71  81 S8        29.87R

$$

MDZ017>025-010300-
SOUTHERN MARYLAND

CITY           SKY/WX    TMP DP  RH WIND       PRES   REMARKS
PATUXENT RIVER MOCLDY    78  68  71 S5        29.83S
ST INIGOES     MOCLDY    79  70  74 SE3       29.83S
LEONARDTOWN*   MOCLDY    75  68  78 CALM      29.85F

$$

MDZ003>005-010300-
NORTH CENTRAL MARYLAND

CITY           SKY/WX    TMP DP  RH WIND       PRES   REMARKS
FREDERICK*     MOCLDY    75  70  83 S5        29.84R
HAGERSTOWN APT MOCLDY    77  68  73 S6        29.82R
WESTMINSTER*   MOCLDY    77  66  69 S7        29.84R

$$

MDZ501>502-010300-
WESTERN MARYLAND

CITY           SKY/WX    TMP DP  RH WIND       PRES   REMARKS
OAKLAND*       CLOUDY    55 N/A N/A SW6       29.92S
CUMBERLAND*    CLOUDY    75  59  57 W3        29.86R

$$

VAZ025>031-010300-
SHENANDOAH VALLEY

CITY           SKY/WX    TMP DP  RH WIND       PRES   REMARKS
WINCHESTER*    NOT AVBL
FRONT ROYAL*   NOT AVBL
LURAY*         NOT AVBL
NEW MARKET*    NOT AVBL
STAUNTON*      NOT AVBL
WAYNESBORO*    NOT AVBL

$$

WVZ021-048>050-054>055-010300-
EASTERN WEST VIRGINIA PANHANDLE

CITY           SKY/WX    TMP DP  RH WIND       PRES   REMARKS
MARTINSBURG    RAIN      67  62  84 SE9       29.84R
PETERSBURG*    NOT AVBL

$$

VAZ036>039-050-010300-
CENTRAL FOOTHILLS

CITY           SKY/WX    TMP DP  RH WIND       PRES   REMARKS
CHARLOTTESVILL MOCLDY    75  67  76 SW7       29.83S
CULPEPER*      NOT AVBL
ORANGE*        NOT AVBL
GORDONSVILLE*  NOT AVBL
WARRENTON*     NOT AVBL

$$

VAZ055>057-010300-
NORTH AND CENTRAL PIEDMONT

CITY           SKY/WX    TMP DP  RH WIND       PRES   REMARKS
FREDERICKSBRG* NOT AVBL
STAFFORD*      NOT AVBL

$$

NCZ024-NYZ072-PAZ021-071-VAZ022-071-010300-
OTHER REGIONAL OBSERVATIONS

CITY           SKY/WX    TMP DP  RH WIND       PRES   REMARKS
NEW YORK CITY  CLOUDY    74  67  78 VRB5      29.90F
PHILADELPHIA   MOCLDY    74  69  85 SE6       29.84S
PITTSBURGH     MOCLDY    63  60  90 S5        29.84R
ROANOKE        CLOUDY    72  63  73 SE9       29.91R THUNDER
RICHMOND       CLOUDY    80  69  69 S7        29.84S THUNDER
RALEIGH        CLOUDY    73  68  84 S8        29.92R

$$

ANZ530>537-010300-
MARINE OBSERVATIONS

STATION/POSITION TIME  TEMP    WIND        PRES
                       AIR SEA DIR/SP/G
                 (UTC) (F)     (DEG/KT/KT) (MB)
THOMAS PT LIGHT  0200   78 77  170/ 14       N/A
BALT KEY BRIDGE  0100   78     160/ 10/ 11 1008.7F
COVE POINT       0100   79     200/  9/ 11 1010.7R
LEWISETTA        0100   79 82  190/  6/  7 1010.2R
SOLOMONS ISLAND  0100      81                N/A
PINEY POINT      0100          190/ 10/ 10   N/A

$$



USA.gov is the U.S. government's official web portal to all federal, state and local government web resources and services.